Location: Newark
(35.1044°N, 77.3364°W)
Time: 20:52:30
(UTC+00:00)

LightSail 2 - Visible Passes

Search period start: 06 December 2019 00:00
Search period end: 16 December 2019 00:00
Orbit: 695 x 731 km, 24.0° (Epoch: 05 December)

Date Brightness Start Highest point End Pass type
(mag) Time Alt. Az. Time Alt. Az. Time Alt. Az.
06 Dec 6.9 00:02:35 10° SW 00:06:29 22° S 00:07:35 20° SSE visible
06 Dec 7.0 23:04:33 10° SW 23:08:35 23° S 23:12:35 10° SE visible
07 Dec 7.6 00:50:26 10° SW 00:52:15 15° SSW 00:52:15 15° SSW visible
07 Dec 7.3 23:52:03 10° SW 23:55:35 19° SSW 23:58:01 14° SSE visible
08 Dec 7.3 22:53:51 10° SW 22:57:41 21° S 23:01:30 10° SE visible
09 Dec 7.7 00:40:57 10° SW 00:42:29 11° SSW 00:42:50 11° SSW visible
09 Dec 7.6 23:41:54 10° SW 23:44:38 14° SSW 23:47:20 10° SSE visible
10 Dec 7.6 22:43:22 10° SW 22:46:44 17° SSW 22:50:04 10° SSE visible
12 Dec 7.9 22:33:26 10° SW 22:35:43 13° SSW 22:38:01 10° S visible
